[[{"header":{"parameterUnit":"m.s-1","parameterCategory":1,"la1":30.2991,"la2":30.254,"lo1":-89.0895,"lo2":-89.0444,"dy":0.0017,"dx":0.0017,"nx":28,"ny":28,"refTime":"2024-03-13T03:00:00:Z","depth":0,"parameterNumber":2,"parameterNumberName":"U-component_of_WINDS"},"data":[0,0,0,0,0,0,0,0,0,0,0,0,0,0,0,0,0,0,0,0,0,0,0,0,0,0,0,0,0,0,0,0,0,0,0,0,0,0,0,0,0,0,0,0,0,0,0,0,0,0,0,0,0,0,0,0,0,0,0.5084,0.5085,0,0.5128,0.5128,0.5129,0.5142,0.5142,0.5142,0.5141,0.5184,0.5186,0.5187,0,0,0,0,0,0,0,0,0,0,0,0,0,0.501,0.5012,0.5084,0.5085,0.5085,0.5127,0.5128,0.5129,0.5142,0.5142,0.5142,0.5141,0.5184,0.5185,0.5187,0,0,0,0,0,0,0,0,0,0,0,0,0,0.5047,0.5012,0.5084,0.5097,0.5099,0.5127,0.5128,0.5129,0.5142,0.5142,0.5141,0.5141,0.5183,0.5185,0.5187,0.5206,0,0,0.5193,0.5194,0,0,0,0,0,0,0,0,0.5045,0.5049,0.5095,0.5096,0.5098,0.5129,0.5118,0.5155,0.5142,0.5126,0.5141,0.5141,0.5166,0.5169,0.5178,0.5208,0.5209,0.5193,0.5195,0.5196,0.5196,0,0,0,0,0,0,0,0.5042,0.5048,0.5101,0.5095,0.5097,0.51,0.5105,0.5125,0.5147,0.5127,0.5128,0.5133,0.5167,0.5176,0.5179,0.521,0.5193,0.5195,0.5196,0.5197,0.5255,0.5256,0,0,0,0,0,0,0.5038,0.5045,0.51,0.5103,0.507,0.5101,0.5107,0.5119,0.5147,0.5151,0.5133,0.5134,0.5173,0.5177,0.5181,0.5203,0.5196,0.5197,0.5199,0.5255,0.5255,0.5256,0,0,0,0,0,0,0.5036,0.5042,0.5098,0.5074,0.5082,0.5103,0.5117,0.512,0.513,0.5152,0.5155,0.5139,0.5173,0.5178,0.5199,0.5205,0.5198,0.52,0.5255,0.5255,0.5256,0.5249,0,0,0,0,0,0,0.5034,0.5042,0.505,0.5074,0.5083,0.5116,0.5117,0.5121,0.5133,0.5134,0.5158,0.5161,0.5173,0.5196,0.5201,0.5208,0.5202,0.5254,0.5255,0.5255,0.5249,0.5249,0.525,0,0,0,0,0,0.5031,0.5046,0.505,0.5057,0.5093,0.5117,0.5122,0.5135,0.5134,0.5141,0.5155,0.5161,0.5204,0.5198,0.5204,0.5211,0.5254,0.5255,0.5255,0.5249,0.5249,0.525,0,0,0,0,0,0,0.5021,0.505,0.5054,0.5078,0.5095,0.5119,0.5129,0.5135,0.5153,0.5153,0.5168,0.5173,0.5193,0.5204,0.5198,0.523,0.5229,0.5231,0.5222,0.5222,0.5223,0.522,0.5203,0,0,0,0,0,0.5022,0.5039,0.5063,0.5081,0.5089,0.5108,0.5118,0.5127,0.5145,0.5152,0.5168,0.5185,0.5202,0.5213,0.523,0.525,0.5255,0.5258,0.5259,0.5259,0.526,0.5271,0.5272,0.5258,0.5258,0.5258,0,0,0.5023,0.5041,0.5051,0.5079,0.5094,0.511,0.5114,0.5132,0.5144,0.5155,0.5176,0.5188,0.5207,0.5228,0.5238,0.5238,0.5265,0.526,0.526,0.5261,0.5272,0.5273,0.5274,0.5259,0.5259,0.5259,0,0,0.5034,0.5049,0.5066,0.508,0.5101,0.5113,0.5117,0.514,0.5149,0.517,0.5178,0.5193,0.5222,0.5235,0.5246,0.526,0.5266,0.5266,0.5268,0.5278,0.5279,0.528,0.5284,0.5286,0.5267,0.5267,0.5267,0,0.5032,0.5059,0.5073,0.5091,0.5102,0.5113,0.513,0.5142,0.5168,0.5176,0.5175,0.5212,0.5226,0.5249,0.5253,0.5261,0.5265,0.5263,0.5278,0.5279,0.528,0.5284,0.5286,0.5267,0.5267,0.5267,0.5267,0,0.5055,0.5073,0.5084,0.5109,0.5122,0.5139,0.5155,0.5166,0.5173,0.5185,0.5206,0.5223,0.5243,0.5249,0.5257,0.5273,0.5273,0.5275,0.5274,0.5281,0.5285,0.5287,0.5266,0.5266,0.5267,0.5267,0,0,0.5061,0.5094,0.5097,0.5108,0.5132,0.5146,0.5162,0.5183,0.5192,0.5209,0.5222,0.5246,0.5248,0.526,0.5269,0.5278,0.5287,0.5279,0.528,0.528,0.5306,0.5304,0.5306,0.5291,0.5292,0.5292,0.5304,0,0.5074,0.5105,0.5118,0.5143,0.5159,0.5169,0.5183,0.5199,0.521,0.5225,0.5237,0.5253,0.5255,0.5262,0.5272,0.5284,0.5293,0.5284,0.5303,0.5304,0.5298,0.5308,0.5306,0.5317,0.5306,0.5306,0.5306,0,0.5094,0.5112,0.5138,0.5159,0.5166,0.5179,0.5198,0.5212,0.523,0.5237,0.525,0.5258,0.5275,0.5273,0.5295,0.5289,0.5297,0.5305,0.5305,0.5308,0.5305,0.531,0.5321,0.5322,0.5309,0.5309,0.5309,0,0.5095,0.5125,0.5144,0.5153,0.5179,0.5187,0.5198,0.5216,0.5227,0.5243,0.525,0.5268,0.5277,0.529,0.5303,0.53,0.5324,0.5323,0.533,0.5329,0.5334,0.5334,0.5346,0.534,0.534,0.534,0.534,0,0.5108,0.5124,0.5145,0.5157,0.5174,0.5188,0.5204,0.5216,0.5231,0.5244,0.5254,0.5266,0.5282,0.5296,0.5306,0.5322,0.5327,0.5332,0.5335,0.5331,0.5331,0.5337,0.5337,0.534,0.534,0.534,0.534,0,0.5112,0.5127,0.5149,0.5171,0.5177,0.5188,0.5207,0.5218,0.5229,0.5246,0.5251,0.5268,0.5285,0.5299,0.5321,0.5327,0.5344,0.5347,0.5339,0.534,0.5345,0.5344,0.5362,0.5365,0.5357,0.5357,0.5357,0,0.5119,0.5131,0.5155,0.5165,0.5176,0.5192,0.5203,0.5217,0.5228,0.5248,0.5257,0.5275,0.5289,0.5316,0.533,0.5346,0.5349,0.5354,0.5352,0.5348,0.5349,0.5348,0.5349,0.5354,0.5354,0.5354,0.5355,0,0.513,0.5137,0.5153,0.5172,0.5185,0.52,0.5215,0.5222,0.5239,0.5251,0.5268,0.528,0.5302,0.5319,0.5337,0.5347,0.5353,0.5355,0.5357,0.5354,0.5348,0.5351,0.5339,0.5355,0.5355,0.5355,0.5355,0.5355,0.5136,0.5147,0.5165,0.5182,0.5195,0.5209,0.522,0.5233,0.5248,0.5268,0.5275,0.5292,0.5309,0.5333,0.5344,0.5357,0.5358,0.5361,0.5362,0.5362,0.5362,0.5346,0.536,0.536,0.536,0.536,0.5361,0,0.5147,0.5159,0.5175,0.5196,0.5209,0.5214,0.5231,0.5242,0.5257,0.5272,0.5286,0.5306,0.5322,0.5337,0.5354,0.5362,0.5365,0.5366,0.5365,0.5367,0.5361,0.5357,0.5363,0.5363,0.5363,0.5363,0.5363,0.5363,0.5154,0.5173,0.5181,0.5206,0.5217,0.5235,0.5244,0.5257,0.5269,0.529,0.5304,0.5314,0.5329,0.5346,0.5361,0.5365,0.5371,0.5371,0.5375,0.5368,0.5368,0.5368,0.5364,0.5372,0.5372,0.5381,0.5381,0.5381]},{"header":{"parameterUnit":"m.s-1","parameterCategory":1,"la1":30.2991,"la2":30.254,"lo1":-89.0895,"lo2":-89.0444,"dy":0.0017,"dx":0.0017,"nx":28,"ny":28,"refTime":"2024-03-13T03:00:00:Z","depth":0,"parameterNumber":3,"parameterNumberName":"V-component_of_WINDS"},"data":[0,0,0,0,0,0,0,0,0,0,0,0,0,0,0,0,0,0,0,0,0,0,0,0,0,0,0,0,0,0,0,0,0,0,0,0,0,0,0,0,0,0,0,0,0,0,0,0,0,0,0,0,0,0,0,0,0,0,3.68,3.68,0,3.685,3.6851,3.6851,3.6806,3.6805,3.6803,3.6801,3.6851,3.6854,3.6857,0,0,0,0,0,0,0,0,0,0,0,0,0,3.6662,3.6665,3.68,3.68,3.6801,3.685,3.6851,3.6851,3.6807,3.6805,3.6802,3.68,3.685,3.6853,3.6857,0,0,0,0,0,0,0,0,0,0,0,0,0,3.6718,3.6666,3.68,3.6785,3.6784,3.685,3.6851,3.6851,3.6807,3.6805,3.6802,3.6799,3.6849,3.6853,3.6857,3.694,0,0,3.6871,3.6873,0,0,0,0,0,0,0,0,3.6715,3.6723,3.6786,3.6786,3.6785,3.6819,3.682,3.6881,3.6808,3.6798,3.6801,3.6798,3.6842,3.6847,3.6862,3.6942,3.6944,3.6872,3.6874,3.6876,3.6878,0,0,0,0,0,0,0,3.6711,3.6721,3.682,3.6787,3.6787,3.6774,3.6779,3.6831,3.6835,3.6799,3.6796,3.6803,3.6841,3.6858,3.6863,3.6945,3.6871,3.6875,3.6878,3.688,3.7092,3.7095,0,0,0,0,0,0,3.6709,3.6718,3.6818,3.6821,3.6743,3.6779,3.6785,3.6811,3.6834,3.6835,3.6805,3.68,3.6852,3.6858,3.6865,3.6961,3.6876,3.688,3.6883,3.7089,3.7092,3.7096,0,0,0,0,0,0,3.6706,3.6719,3.6816,3.6769,3.678,3.6784,3.6814,3.6813,3.683,3.6839,3.6839,3.6822,3.685,3.6859,3.6921,3.6962,3.6882,3.6887,3.7085,3.709,3.7094,3.7155,0,0,0,0,0,0,3.6703,3.6718,3.675,3.677,3.6783,3.6873,3.6817,3.6816,3.6838,3.6833,3.6854,3.6855,3.6848,3.6914,3.6925,3.6967,3.689,3.7082,3.7087,3.7093,3.715,3.7161,3.7171,0,0,0,0,0,3.6698,3.6766,3.6752,3.6765,3.6824,3.6875,3.6882,3.6874,3.6842,3.6874,3.6879,3.6855,3.6956,3.6921,3.6933,3.6977,3.7079,3.7086,3.7092,3.7145,3.7159,3.7171,0,0,0,0,0,0,3.6751,3.6768,3.6753,3.683,3.6851,3.6867,3.6907,3.6889,3.692,3.6914,3.6901,3.6906,3.6971,3.698,3.6941,3.7056,3.7012,3.7022,3.7048,3.7062,3.7072,3.7068,3.6894,0,0,0,0,0,3.6772,3.6813,3.6825,3.6891,3.6903,3.6904,3.6926,3.6917,3.6938,3.6947,3.6957,3.6978,3.7014,3.7039,3.7073,3.7151,3.7154,3.7186,3.7197,3.7206,3.7214,3.7253,3.7267,3.7117,3.7117,3.7117,0,0,3.6815,3.6829,3.6856,3.6902,3.6918,3.696,3.6912,3.6958,3.6988,3.6954,3.7013,3.7021,3.7044,3.7114,3.7145,3.7123,3.7256,3.7214,3.7221,3.7224,3.7262,3.7276,3.7288,3.7121,3.7121,3.712,0,0,3.6914,3.693,3.6986,3.7002,3.7026,3.7026,3.7039,3.7058,3.7062,3.7121,3.7095,3.713,3.7194,3.721,3.7227,3.733,3.7309,3.7342,3.7398,3.7437,3.7448,3.7459,3.7494,3.7507,3.735,3.735,3.735,0,3.6965,3.7027,3.7017,3.7065,3.7085,3.7055,3.7111,3.7127,3.7161,3.7175,3.715,3.7227,3.7241,3.7313,3.7338,3.7353,3.7366,3.7339,3.7448,3.7458,3.7468,3.7501,3.7514,3.7354,3.7353,3.7353,3.7352,0,3.7087,3.713,3.7172,3.7206,3.723,3.7282,3.7278,3.7304,3.7292,3.7294,3.7353,3.7368,3.7403,3.742,3.741,3.749,3.7476,3.745,3.7405,3.7486,3.7517,3.753,3.7359,3.7358,3.7357,3.7356,0,0,3.7222,3.7248,3.7263,3.7277,3.73,3.7333,3.7382,3.7417,3.7439,3.7463,3.7502,3.7556,3.7531,3.755,3.7541,3.7575,3.7653,3.7544,3.7544,3.7562,3.774,3.7759,3.7774,3.7639,3.7641,3.7643,3.7738,0,3.7321,3.7407,3.7398,3.7479,3.7518,3.749,3.7532,3.755,3.7552,3.7585,3.7587,3.7624,3.759,3.7601,3.7633,3.7637,3.7688,3.763,3.7674,3.7676,3.7668,3.7791,3.7811,3.79,3.775,3.7752,3.7754,0,3.7449,3.7477,3.7562,3.7577,3.7593,3.7631,3.7661,3.7693,3.7712,3.7711,3.7731,3.7716,3.7763,3.7718,3.7782,3.7742,3.7759,3.7764,3.7767,3.777,3.7719,3.7796,3.7928,3.7941,3.7773,3.7771,3.777,0,3.7537,3.7596,3.7654,3.7666,3.7686,3.7713,3.7723,3.7739,3.776,3.7786,3.7798,3.783,3.7846,3.787,3.7862,3.783,3.7927,3.7882,3.7926,3.7927,3.7948,3.7946,3.8084,3.7961,3.7961,3.7961,3.796,0,3.7648,3.7701,3.7693,3.7729,3.7786,3.7774,3.7831,3.7837,3.7851,3.7886,3.7863,3.7896,3.7885,3.7917,3.7911,3.7964,3.7972,3.7971,3.7969,3.7973,3.7973,3.7983,3.7977,3.7964,3.7963,3.7963,3.7962,0,3.7756,3.7754,3.7814,3.7828,3.7832,3.7874,3.7884,3.7917,3.7916,3.7961,3.797,3.797,3.8006,3.8001,3.8042,3.8037,3.8103,3.8093,3.8096,3.8094,3.8138,3.8134,3.8287,3.8305,3.8171,3.8173,3.8174,0,3.7827,3.7867,3.7884,3.7905,3.7917,3.7952,3.7973,3.7962,3.7984,3.8008,3.8037,3.8071,3.8098,3.8157,3.8159,3.8189,3.818,3.8231,3.8184,3.8186,3.8179,3.8176,3.8179,3.824,3.8242,3.8243,3.8244,0,3.7952,3.7948,3.7979,3.8009,3.8034,3.8057,3.8078,3.8097,3.8087,3.8113,3.815,3.8171,3.8211,3.8245,3.8272,3.8281,3.826,3.8259,3.8271,3.8275,3.8274,3.8273,3.812,3.8255,3.8254,3.8253,3.8253,3.8252,3.8043,3.8076,3.8092,3.8127,3.8141,3.816,3.8191,3.8194,3.8224,3.8257,3.8248,3.8289,3.8305,3.834,3.8351,3.8382,3.8363,3.838,3.8385,3.8389,3.8393,3.827,3.8387,3.8387,3.8387,3.8386,3.8386,0,3.8165,3.8174,3.8206,3.8235,3.8262,3.824,3.8261,3.8285,3.8321,3.8338,3.8364,3.8405,3.8437,3.8441,3.8471,3.8495,3.8486,3.8503,3.8501,3.8502,3.8409,3.8396,3.8509,3.8509,3.8509,3.8509,3.8509,3.8509,3.8232,3.8286,3.8284,3.8344,3.8352,3.8392,3.8406,3.8423,3.8435,3.8482,3.8509,3.8511,3.8522,3.8552,3.858,3.858,3.8592,3.8612,3.8609,3.8522,3.8509,3.8497,3.8484,3.8615,3.8615,3.8699,3.8699,3.87]}]]